Wind_Speed
8 8 9 9 9 10 11 12 13 12 10 9 9 9 7 7 8 7 7 7 7 6 7 7 6 5 6 7 6 8 8 6 5 5 6 10 12 15 16 16 8 3 5 5 8 9 10
6 6 8 9 10 11 12 12 13 14 12 11 10 9 8 7 7 10 10 10 10 10 10 11 9 9 10 9 8 9 9 8 5 3 5 9 4 8 16 14 2 8 4 4 13 14 10
5 6 7 8 9 10 11 11 12 13 14 13 13 11 10 9 8 7 11 13 13 13 13 13 13 13 12 7 8 10 10 8 5 1 2 5 2 2 8 17 2 19 2 10 24 16 15
5 8 10 11 12 12 12 12 12 13 14 14 14 14 12 9 8 9 10 13 17 16 16 16 15 15 17 15 14 13 13 11 7 2 1 2 5 13 4 5 10 28 24 18 25 14 15
8 10 11 12 13 14 14 15 15 15 14 14 15 15 15 12 10 9 10 11 15 19 18 18 19 17 16 16 18 16 15 14 11 7 3 2 10 13 8 30 25 26 22 18 12 16 11
8 9 11 12 14 15 16 16 15 16 15 14 14 15 15 15 13 11 10 10 13 20 21 21 20 19 13 15 20 20 18 17 15 12 7 4 8 18 13 22 20 16 14 13 8 14 15
8 10 12 14 16 16 16 16 15 16 14 12 13 13 15 16 14 12 10 10 12 20 25 20 21 20 24 25 15 22 21 18 16 13 9 9 5 31 15 21 17 14 16 18 12 9 18
10 12 13 15 18 19 17 15 15 14 13 12 12 14 16 16 14 11 9 9 7 12 19 22 23 18 29 15 17 20 19 19 21 18 15 9 7 24 14 10 7 8 25 25 7 4 9
11 13 14 17 19 19 16 15 13 13 12 12 13 15 13 13 12 9 6 4 4 12 18 18 15 15 22 18 18 20 22 18 17 23 17 16 17 24 18 5 2 9 25 14 13 12 15
13 14 15 17 18 16 15 14 13 13 13 12 13 9 9 12 12 8 8 8 6 8 10 7 11 9 10 11 11 17 19 18 18 20 22 23 18 28 32 8 10 9 17 12 17 13 11
15 15 16 17 16 15 15 14 14 13 14 13 7 4 7 10 12 8 11 14 17 15 11 7 7 13 12 9 8 9 9 15 13 18 22 25 20 24 23 19 18 18 20 19 11 10 13
14 14 15 16 16 16 16 17 16 13 11 5 1 3 6 8 11 9 9 13 18 15 5 7 14 9 9 10 8 7 7 8 9 14 21 26 26 29 25 20 23 31 25 21 14 16 20
14 13 14 15 17 17 18 18 14 9 4 2 4 5 5 6 8 9 9 9 14 16 7 6 1 5 3 4 9 10 8 8 10 13 14 12 14 13 24 32 26 27 25 23 16 14 21
14 14 15 16 17 16 16 14 8 3 4 4 4 5 6 6 6 6 7 6 10 4 6 3 6 5 4 2 10 12 11 11 9 20 19 16 17 14 20 24 21 22 21 21 23 23 33
16 15 16 17 17 14 13 11 7 7 8 6 5 5 6 5 5 5 5 5 5 5 5 5 5 4 4 7 15 10 8 11 11 18 26 24 17 16 13 20 17 23 24 23 27 26 26
16 16 16 16 17 13 10 10 8 7 5 5 4 5 4 3 3 4 4 5 8 9 9 7 7 6 8 13 11 12 6 16 22 30 30 24 30 20 17 12 13 19 19 21 23 25 24
17 16 16 15 16 13 10 7 7 6 5 5 4 4 3 2 1 2 4 6 8 8 9 9 11 11 10 14 21 19 16 17 29 25 20 22 28 27 29 18 12 18 18 19 22 25 25
18 17 16 16 15 13 12 9 7 5 7 7 6 5 3 3 3 3 5 7 9 11 12 13 14 14 14 16 16 19 19 22 28 26 17 22 29 32 30 24 21 21 22 20 20 22 23
21 19 18 17 17 14 14 12 10 8 7 7 7 7 7 6 6 6 7 10 11 13 13 15 18 19 20 21 22 21 23 27 35 28 30 25 27 32 30 23 26 23 20 23 26 26 24
25 22 20 19 19 16 16 15 14 14 11 10 8 8 8 7 9 12 15 17 20 21 20 24 22 23 23 24 26 27 28 30 37 37 34 31 32 33 35 35 28 32 32 29 24 31 27
21 23 22 20 18 17 17 17 15 16 13 11 9 9 11 14 16 19 20 23 25 28 27 27 22 25 25 24 27 30 33 34 36 39 45 37 40 40 40 39 40 39 40 37 33 29 31
16 16 17 18 18 17 17 18 16 16 15 14 13 14 16 19 21 23 25 25 24 27 26 26 26 24 26 28 29 29 34 35 39 39 42 43 44 41 43 42 44 48 43 54 53 44 40
14 14 13 14 15 17 16 17 17 17 19 18 18 19 21 23 23 24 25 25 26 25 25 25 26 27 30 31 34 36 37 37 41 43 43 43 45 45 47 46 48 53 50 47 49 57 46
15 16 17 16 16 17 18 18 19 20 21 21 22 24 25 26 25 24 24 25 26 28 27 29 30 31 32 34 36 37 39 39 40 40 43 44 44 44 47 42 50 42 38 40 39 36 38
20 20 20 19 19 20 21 22 22 23 25 27 27 26 26 27 26 27 26 27 27 29 30 30 30 33 35 36 39 40 39 39 41 44 43 36 37 41 40 41 40 38 32 33 24 32 36
25 24 23 23 23 23 22 22 23 23 24 25 26 27 27 29 28 28 29 28 28 30 31 35 33 35 37 40 42 42 43 44 44 41 29 30 35 37 38 40 38 30 28 28 28 41 36
29 28 28 28 28 27 26 24 24 24 25 25 26 27 29 30 32 31 32 30 30 31 31 34 35 40 41 44 44 44 45 43 40 38 32 30 30 34 36 40 41 37 34 31 39 36 30
34 34 33 33 32 32 32 31 30 29 28 29 28 30 31 32 33 33 32 30 31 33 33 35 37 44 44 47 46 44 41 36 37 33 31 28 30 34 39 46 51 42 44 44 44 41 41
36 36 37 37 36 35 35 35 36 35 33 32 32 31 31 32 36 32 32 31 32 33 34 37 41 44 47 48 43 40 35 31 29 28 26 31 35 42 42 39 41 44 44 41 44 47 46
Wind_Direction
56 53 44 32 24 20 14 8 4 360 355 345 340 338 335 288 261 252 255 244 228 237 222 201 200 199 179 175 169 151 144 135 133 129 163 15 4 54 84 52 21 342 35 6 32 38 27
60 41 24 11 4 360 358 357 358 356 350 346 337 325 320 316 300 265 251 244 239 229 232 232 227 220 216 196 182 167 165 161 153 168 200 138 225 49 23 39 212 103 177 87 33 24 33
29 13 2 356 351 347 343 339 342 346 347 346 345 337 324 303 298 283 262 253 246 237 234 238 240 237 226 212 210 185 182 181 169 171 305 115 188 9 167 278 0 312 13 83 32 24 17
359 352 348 347 344 340 336 333 333 333 335 340 346 348 341 329 306 296 276 254 248 244 236 233 243 245 243 225 210 205 197 202 202 187 350 62 105 230 221 48 121 58 38 63 16 39 15
351 347 344 343 341 336 330 329 330 328 324 332 337 340 347 343 321 309 300 270 246 242 239 237 237 239 243 241 231 217 210 211 214 214 215 110 181 242 261 69 49 65 48 27 344 12 11
341 339 339 340 338 334 331 329 327 332 327 329 335 335 338 340 335 306 302 281 248 235 235 236 236 241 264 254 239 230 227 219 215 216 211 187 173 281 340 37 72 59 14 307 26 344 341
328 330 333 337 340 341 336 332 327 334 334 335 335 333 332 332 329 318 297 286 256 235 230 232 232 228 242 245 240 238 234 242 241 237 224 170 240 258 330 19 19 40 298 273 123 345 344
321 324 329 336 338 338 337 335 335 341 340 339 336 337 336 332 325 313 303 293 270 256 228 228 238 237 238 273 257 253 250 252 260 254 241 256 253 282 299 69 320 298 305 310 64 358 295
328 327 326 331 336 338 341 345 344 343 343 340 341 345 350 350 349 336 324 306 220 209 216 225 240 242 255 272 267 263 268 257 255 247 239 261 260 275 259 254 49 300 291 347 314 309 298
319 320 323 331 337 338 338 344 341 339 338 336 339 2 16 13 10 23 38 65 105 187 216 256 256 257 265 273 272 258 266 272 258 253 245 229 256 296 299 349 306 277 281 316 311 301 297
311 318 326 336 339 333 331 329 331 328 328 328 341 13 11 19 20 45 56 79 103 111 82 285 326 248 264 270 283 294 266 267 265 255 251 256 261 263 270 294 284 269 260 267 291 312 298
310 316 326 334 331 326 324 324 320 313 315 322 336 336 357 15 20 30 49 71 102 95 59 288 274 255 245 262 264 274 279 283 280 267 255 260 247 239 250 255 272 264 275 284 282 306 298
310 314 322 328 327 321 321 320 314 304 296 302 322 332 346 3 23 30 37 52 90 66 294 273 298 256 268 233 277 275 267 279 283 293 285 289 280 290 275 263 260 273 283 288 291 285 293
303 307 313 319 326 319 324 324 326 301 291 311 320 324 333 348 3 24 26 37 81 286 222 259 269 255 229 218 267 255 269 272 288 294 287 287 280 290 299 291 272 264 265 266 274 278 288
293 298 305 312 323 314 321 323 310 310 312 310 313 317 323 334 356 358 2 346 281 305 308 314 303 327 312 293 309 247 267 269 234 241 233 235 233 222 228 278 247 254 270 277 259 265 277
291 289 295 305 320 305 307 310 314 317 319 326 336 328 311 320 337 356 353 330 334 326 320 315 291 271 197 170 245 277 251 267 249 249 253 256 262 221 208 244 260 251 239 255 259 260 268
285 286 287 297 312 293 290 288 299 312 313 321 320 332 318 324 323 335 329 341 328 323 320 318 311 299 278 249 249 260 252 234 274 269 265 258 256 255 235 232 257 258 272 277 285 264 244
280 278 279 289 302 283 277 270 277 295 296 289 280 273 283 281 295 293 301 298 298 302 310 306 299 293 283 282 281 278 271 255 270 288 274 254 256 259 250 233 233 250 272 251 249 275 287
275 275 274 282 294 276 272 268 259 273 298 306 285 270 276 276 292 293 298 303 305 313 315 315 301 292 285 282 281 282 274 270 278 279 279 268 268 268 266 262 244 241 248 268 260 246 241
266 267 272 278 285 273 267 260 258 266 282 289 290 278 270 270 278 291 299 304 305 305 308 307 300 293 284 283 284 282 278 274 274 279 275 278 274 269 266 262 220 221 220 233 246 252 253
271 264 268 274 273 270 267 266 258 261 268 278 275 275 276 281 287 293 297 301 304 303 307 301 299 290 287 282 279 279 281 279 277 279 282 277 272 270 267 263 257 233 225 224 226 239 232
286 275 267 266 267 270 270 272 266 260 264 267 269 273 278 285 288 293 297 301 300 303 302 299 296 292 290 290 290 287 281 278 277 275 275 278 277 274 269 265 263 262 244 234 235 230 237
292 286 279 275 275 276 269 274 271 263 265 270 271 276 282 288 293 298 300 302 304 305 300 296 297 296 295 294 293 291 286 281 280 280 280 278 277 274 270 271 269 260 258 259 245 244 244
284 283 282 279 275 271 272 270 268 261 263 266 274 281 287 292 296 298 297 300 301 301 297 297 295 295 294 296 295 291 289 286 283 283 282 280 278 273 273 267 264 275 264 256 250 243 246
278 276 275 273 272 273 275 273 269 263 262 267 275 281 286 290 295 297 297 297 298 298 297 294 302 301 302 304 301 297 292 290 285 286 287 282 274 272 271 269 273 269 269 265 251 255 243
277 273 269 268 271 273 279 279 274 270 269 272 276 281 287 292 294 295 297 297 293 293 298 299 303 300 305 303 301 298 294 290 287 288 276 273 282 278 275 270 266 270 263 249 241 257 254
276 273 270 270 271 271 273 278 277 274 274 276 281 285 290 294 296 299 298 296 295 297 298 299 305 304 310 306 303 299 294 291 290 285 281 277 268 269 271 273 271 275 277 263 256 260 244
276 275 274 273 273 273 273 273 276 277 276 279 282 286 289 292 295 300 299 297 296 298 298 303 307 307 309 307 305 300 294 288 287 285 287 282 279 274 271 269 273 269 269 262 259 250 238
279 276 275 274 274 274 275 276 276 276 278 280 282 284 289 295 294 296 300 297 297 298 301 305 307 308 308 308 306 300 296 294 290 292 280 286 284 278 280 285 285 279 272 265 260 260 248
Height
5922 5921 5920 5918 5917 5915 5914 5912 5910 5908 5906 5905 5904 5902 5901 5901 5900 5900 5899 5900 5900 5900 5901 5901 5901 5901 5901 5902 5902 5903 5903 5903 5904 5904 5909 5896 5904 5895 5890 5901 5907 5910 5905 5906 5904 5904 5904
5923 5922 5921 5919 5917 5915 5914 5912 5910 5907 5906 5904 5903 5902 5901 5900 5899 5898 5898 5898 5899 5899 5900 5901 5901 5901 5901 5902 5902 5903 5904 5905 5905 5905 5909 5907 5907 5903 5893 5903 5908 5903 5902 5903 5904 5904 5905
5924 5923 5921 5920 5918 5916 5914 5912 5910 5908 5906 5904 5902 5900 5899 5898 5897 5897 5897 5896 5896 5897 5898 5899 5900 5900 5900 5902 5902 5903 5904 5905 5906 5906 5907 5907 5908 5907 5903 5864 5898 5892 5905 5905 5903 5905 5906
5924 5922 5921 5919 5917 5915 5914 5912 5910 5908 5905 5903 5901 5900 5898 5896 5896 5895 5895 5895 5894 5895 5896 5897 5898 5899 5899 5901 5901 5902 5904 5905 5906 5907 5908 5909 5911 5895 5902 5897 5906 5901 5900 5900 5906 5908 5907
5924 5922 5920 5918 5917 5915 5912 5910 5909 5907 5905 5903 5901 5899 5897 5895 5894 5893 5892 5891 5892 5892 5893 5895 5896 5897 5898 5901 5902 5902 5903 5905 5907 5909 5909 5911 5909 5902 5903 5894 5905 5905 5904 5905 5913 5912 5910
5924 5922 5920 5918 5916 5913 5911 5908 5907 5905 5903 5901 5900 5898 5896 5894 5892 5890 5889 5888 5888 5889 5890 5891 5893 5897 5900 5902 5901 5902 5903 5904 5906 5908 5911 5913 5913 5902 5908 5908 5912 5916 5913 5918 5912 5915 5913
5924 5922 5920 5918 5915 5913 5910 5907 5905 5904 5902 5901 5899 5897 5895 5892 5890 5887 5886 5885 5885 5886 5886 5890 5891 5894 5894 5895 5900 5901 5904 5906 5907 5909 5911 5911 5912 5900 5910 5906 5914 5913 5918 5916 5912 5918 5916
5923 5921 5919 5917 5915 5912 5909 5907 5904 5903 5901 5899 5897 5895 5893 5890 5887 5885 5883 5881 5881 5883 5885 5886 5888 5892 5890 5895 5898 5900 5903 5906 5907 5909 5910 5911 5913 5900 5906 5905 5917 5923 5916 5914 5914 5915 5918
5923 5920 5918 5916 5913 5910 5908 5906 5903 5901 5900 5898 5896 5894 5891 5888 5885 5883 5881 5879 5878 5879 5883 5886 5889 5891 5892 5895 5897 5899 5899 5902 5904 5906 5909 5910 5913 5908 5908 5912 5914 5922 5912 5915 5916 5915 5916
5921 5919 5917 5915 5912 5909 5907 5904 5902 5900 5899 5897 5895 5893 5891 5888 5886 5882 5880 5878 5877 5879 5884 5888 5889 5891 5892 5893 5894 5895 5897 5899 5900 5902 5905 5906 5912 5903 5905 5903 5914 5917 5918 5915 5913 5913 5914
5920 5918 5915 5913 5910 5908 5905 5903 5901 5899 5897 5895 5894 5893 5891 5889 5886 5884 5882 5879 5879 5883 5890 5889 5887 5889 5891 5893 5894 5894 5895 5895 5897 5898 5901 5903 5906 5909 5910 5911 5912 5913 5910 5909 5910 5910 5911
5918 5916 5913 5911 5909 5906 5904 5901 5899 5897 5895 5894 5893 5892 5891 5890 5888 5886 5884 5882 5884 5889 5892 5891 5889 5887 5890 5891 5892 5893 5893 5894 5894 5894 5896 5896 5900 5900 5902 5906 5908 5906 5906 5907 5907 5908 5909
5916 5914 5912 5910 5907 5904 5901 5899 5896 5894 5893 5893 5892 5892 5891 5889 5889 5887 5886 5886 5887 5889 5892 5894 5891 5889 5891 5894 5893 5892 5892 5892 5893 5892 5892 5893 5895 5899 5900 5900 5903 5902 5903 5903 5906 5908 5908
5914 5912 5910 5908 5906 5903 5900 5897 5895 5894 5893 5893 5892 5891 5890 5889 5888 5887 5887 5887 5886 5892 5891 5888 5888 5888 5889 5894 5892 5893 5892 5893 5895 5894 5893 5893 5895 5900 5899 5897 5898 5900 5902 5903 5903 5904 5898
5911 5909 5908 5906 5904 5901 5898 5896 5894 5893 5893 5892 5891 5890 5889 5888 5887 5887 5887 5887 5889 5886 5886 5886 5886 5886 5889 5891 5890 5891 5891 5893 5893 5891 5887 5886 5886 5890 5894 5896 5896 5898 5896 5898 5897 5899 5899
5907 5906 5905 5903 5901 5899 5897 5895 5894 5893 5892 5891 5890 5889 5888 5887 5887 5887 5887 5886 5885 5884 5884 5884 5884 5884 5886 5890 5889 5887 5888 5888 5886 5883 5882 5884 5880 5885 5885 5889 5892 5891 5894 5894 5893 5893 5894
5903 5902 5901 5900 5898 5896 5895 5894 5893 5892 5891 5890 5889 5889 5888 5887 5887 5887 5886 5886 5885 5884 5883 5883 5881 5881 5880 5881 5879 5879 5880 5881 5876 5875 5876 5877 5877 5879 5881 5882 5888 5891 5888 5889 5889 5889 5889
5899 5898 5897 5896 5895 5893 5892 5892 5892 5891 5890 5890 5889 5889 5887 5887 5887 5887 5886 5885 5884 5883 5881 5880 5879 5877 5876 5875 5875 5874 5874 5872 5868 5867 5869 5870 5867 5868 5871 5875 5880 5882 5883 5885 5886 5888 5885
5893 5893 5893 5892 5891 5890 5889 5889 5889 5889 5888 5887 5887 5887 5887 5886 5886 5885 5884 5883 5882 5880 5878 5877 5875 5873 5871 5870 5869 5868 5867 5865 5859 5862 5859 5863 5864 5860 5862 5868 5872 5874 5878 5879 5878 5878 5878
5887 5888 5888 5887 5887 5886 5886 5886 5886 5886 5885 5885 5885 5885 5884 5884 5883 5882 5881 5879 5877 5875 5874 5872 5870 5867 5865 5864 5861 5860 5859 5858 5853 5851 5851 5853 5852 5852 5852 5855 5859 5859 5860 5865 5868 5870 5873
5880 5881 5882 5881 5881 5881 5881 5881 5882 5882 5882 5882 5882 5881 5881 5881 5880 5878 5876 5874 5872 5869 5867 5864 5864 5860 5858 5857 5854 5852 5850 5848 5847 5843 5838 5843 5840 5841 5841 5841 5843 5849 5849 5850 5853 5857 5859
5875 5876 5876 5876 5876 5877 5877 5877 5877 5878 5878 5878 5878 5877 5877 5876 5874 5873 5870 5867 5865 5862 5860 5857 5855 5853 5851 5848 5846 5844 5840 5839 5835 5835 5831 5829 5825 5828 5827 5829 5829 5830 5838 5839 5840 5842 5845
5873 5872 5872 5872 5872 5872 5872 5872 5872 5873 5873 5873 5872 5872 5871 5870 5868 5866 5863 5860 5858 5855 5853 5850 5848 5846 5843 5840 5837 5833 5830 5828 5825 5822 5820 5818 5816 5815 5813 5815 5813 5814 5821 5824 5830 5832 5833
5869 5869 5868 5868 5868 5867 5867 5867 5867 5867 5867 5867 5867 5866 5865 5863 5861 5859 5857 5854 5851 5848 5846 5843 5840 5837 5834 5831 5827 5823 5819 5816 5813 5809 5806 5804 5802 5799 5798 5798 5795 5810 5807 5810 5810 5814 5819
5864 5863 5862 5862 5862 5862 5862 5861 5861 5860 5860 5860 5860 5859 5858 5856 5855 5851 5849 5847 5844 5840 5837 5835 5832 5827 5823 5820 5815 5811 5807 5804 5799 5795 5793 5792 5789 5786 5784 5785 5787 5791 5796 5795 5795 5797 5803
5857 5856 5856 5855 5855 5855 5855 5854 5854 5854 5853 5853 5852 5851 5850 5848 5847 5845 5842 5839 5837 5833 5829 5824 5823 5819 5815 5809 5804 5799 5794 5790 5786 5784 5783 5780 5777 5776 5776 5773 5773 5780 5782 5779 5780 5779 5792
5849 5849 5848 5848 5848 5847 5847 5847 5847 5847 5846 5845 5844 5843 5842 5840 5837 5836 5833 5831 5827 5824 5820 5816 5813 5806 5804 5797 5792 5787 5781 5777 5774 5770 5769 5768 5768 5765 5762 5759 5762 5768 5767 5768 5768 5775 5774
5840 5839 5840 5840 5839 5839 5838 5838 5838 5838 5838 5836 5836 5835 5833 5831 5829 5826 5824 5822 5818 5814 5811 5807 5804 5796 5792 5785 5780 5774 5768 5765 5761 5760 5759 5758 5756 5754 5752 5748 5747 5757 5754 5753 5751 5753 5757
5829 5829 5829 5829 5829 5829 5829 5829 5828 5828 5828 5827 5826 5826 5825 5823 5819 5819 5816 5813 5809 5806 5803 5799 5794 5787 5780 5774 5768 5761 5757 5755 5753 5752 5751 5749 5746 5738 5740 5739 5737 5736 5734 5735 5734 5738 5739